FW9594 Weather Reports


Display with metric or nautical units.
time (UTC)temp
F
wind
direction
speed
MPH
gust
MPH
rain 1hr
in
rain 24hr
in
rain mn
in
humidity
%
barometer
mb
20260504202215 83 61 2.0 11.0 0.00 0.00 0.00 56 1007.3
20260504201214 83 248 3.0 15.0 0.00 0.00 0.00 54 1007.7
20260504200216 84 269 2.0 7.0 0.00 0.00 0.00 57 1007.9
20260504195215 83 109 3.0 13.0 0.00 0.00 0.00 53 1008.2
20260504194215 83 221 2.0 11.0 0.00 0.00 0.00 54 1008.3
20260504193214 83 251 2.0 12.0 0.00 0.00 0.00 55 1008.4
20260504192215 83 258 3.0 10.0 0.00 0.00 0.00 53 1008.5
20260504191214 83 83 3.0 9.0 0.00 0.00 0.00 54 1008.7
20260504190215 82 223 3.0 11.0 0.00 0.00 0.00 53 1009.0
20260504190135 82 166 5.0 12.0 0.00 0.00 0.00 53 1009.1
20260504184214 81 118 4.0 13.0 0.00 0.00 0.00 55 1009.1
20260504183215 81 190 3.0 11.0 0.00 0.00 0.00 56 1009.4
20260504182214 80 264 3.0 11.0 0.00 0.00 0.00 56 1009.3
20260504181215 80 159 4.0 12.0 0.00 0.00 0.00 55 1009.6
20260504180215 80 293 4.0 11.0 0.00 0.00 0.00 55 1009.8
20260504175215 80 197 4.0 11.0 0.00 0.00 0.00 55 1009.6
20260504174214 80 250 3.0 10.0 0.00 0.00 0.00 55 1010.1
20260504173215 80 303 3.0 10.0 0.00 0.00 0.00 57 1010.1
20260504172214 79 245 2.0 13.0 0.00 0.00 0.00 56 1010.3
20260504171215 78 230 3.0 11.0 0.00 0.00 0.00 57 1010.5
20260504170700 78 162 2.0 10.0 0.00 0.00 0.00 57 1010.6
20260504160214 74 188 3.0 12.0 0.00 0.00 0.00 59 1011.3
20260504150212 71 226 1.0 12.0 0.00 0.00 0.00 66 1011.9
20260504141211 68 283 3.0 13.0 0.00 0.00 0.00 70 1011.9
20260504140213 67 204 2.0 9.0 0.00 0.00 0.00 71 1012.1
20260504130214 63 227 2.0 5.0 0.00 0.00 0.00 76 1012.3
20260504120215 62 190 1.0 7.0 0.00 0.00 0.00 75 1011.8
20260504110214 62 189 1.0 7.0 0.00 0.00 0.00 74 1011.8
20260504081150 65 166 1.0 4.0 0.00 0.00 0.00 63 1012.7
20260504080145 65 149 2.0 6.0 0.00 0.00 0.00 61 1012.9
20260504070140 65 42 0.0 4.0 0.00 0.00 0.00 61 1013.5
20260504060133 66 202 0.0 3.0 0.00 0.00 0.00 59 1014.2
20260504050129 67 226 0.0 4.0 0.00 0.00 0.00 55 1014.7
20260504045129 67 234 1.0 3.0 0.00 0.00 0.00 55 1014.7
20260504044130 68 207 0.0 2.0 0.00 0.00 0.00 54 1014.9
20260504043128 68 178 1.0 4.0 0.00 0.00 0.00 54 1015.1
20260504042129 68 243 0.0 3.0 0.00 0.00 0.00 54 1015.2
20260504041129 68 231 0.0 3.0 0.00 0.00 0.00 54 1015.1
20260504040127 69 257 0.0 4.0 0.00 0.00 0.00 54 1015.2
20260504035125 69 204 0.0 6.0 0.00 0.00 0.00 54 1014.9
20260504034126 69 213 1.0 3.0 0.00 0.00 0.00 54 1014.9
20260504033557 69 210 0.0 2.0 0.00 0.00 0.00 53 1014.8
20260504032121 70 118 0.0 3.0 0.00 0.00 0.00 51 1014.8
20260504031603 70 254 0.0 2.0 0.00 0.00 0.00 50 1014.8
20260504030119 71 254 1.0 4.0 0.00 0.00 0.00 49 1014.7
20260504025117 71 125 1.0 4.0 0.00 0.00 0.00 48 1014.7
20260504024115 71 271 1.0 2.0 0.00 0.00 0.00 46 1014.5
20260504023115 72 128 0.0 5.0 0.00 0.00 0.00 45 1014.7
20260504022113 72 192 1.0 5.0 0.00 0.00 0.00 44 1014.5
20260504021114 72 82 1.0 4.0 0.00 0.00 0.00 44 1014.7
20260504020114 73 227 1.0 4.0 0.00 0.00 0.00 42 1014.5
20260504015112 73 271 0.0 5.0 0.00 0.00 0.00 42 1014.5
20260504014111 74 231 0.0 5.0 0.00 0.00 0.00 41 1014.3
20260504013112 74 227 2.0 4.0 0.00 0.00 0.00 41 1014.3
20260504012111 75 120 2.0 5.0 0.00 0.00 0.00 40 1014.2
20260504011111 75 165 1.0 3.0 0.00 0.00 0.00 40 1014.2
20260504010551 76 247 2.0 3.0 0.00 0.00 0.00 40 1014.2
20260504005112 77 228 0.0 4.0 0.00 0.00 0.00 38 1014.2
20260504004112 78 188 1.0 4.0 0.00 0.00 0.00 36 1014.2
20260504003112 79 186 1.0 6.0 0.00 0.00 0.00 36 1014.2
20260504002550 82 214 1.0 9.0 0.00 0.00 0.00 33 1014.2
20260504001112 83 285 1.0 6.0 0.00 0.00 0.00 32 1014.3
20260504000111 83 176 1.0 6.0 0.00 0.00 0.00 32 1014.3
20260503235559 83 288 0.0 6.0 0.00 0.00 0.00 33 1014.4
20260503234113 84 247 2.0 9.0 0.00 0.00 0.00 32 1014.5
20260503233603 84 73 2.0 6.0 0.00 0.00 0.00 31 1014.5
20260503232113 85 285 1.0 7.0 0.00 0.00 0.00 32 1014.6
20260503231113 84 135 2.0 7.0 0.00 0.00 0.00 31 1014.7
20260503230113 84 87 2.0 6.0 0.00 0.00 0.00 30 1014.6
20260503230033 85 238 2.0 5.0 0.00 0.00 0.00 31 1014.7
20260503224113 85 217 3.0 7.0 0.00 0.00 0.00 31 1014.8
20260503223113 85 125 2.0 6.0 0.00 0.00 0.00 31 1014.8
20260503222112 85 142 2.0 11.0 0.00 0.00 0.00 31 1014.9
20260503221112 85 248 2.0 6.0 0.00 0.00 0.00 31 1015.1
20260503220113 85 224 3.0 9.0 0.00 0.00 0.00 29 1015.3
20260503215112 85 175 3.0 9.0 0.00 0.00 0.00 29 1015.4
20260503214554 85 189 2.0 7.0 0.00 0.00 0.00 30 1015.4
20260503213557 85 219 2.0 6.0 0.00 0.00 0.00 31 1015.7
20260503212113 85 135 2.0 10.0 0.00 0.00 0.00 33 1015.9
20260503211113 85 82 2.0 7.0 0.00 0.00 0.00 33 1015.9
20260503210113 85 245 2.0 6.0 0.00 0.00 0.00 30 1016.2
20260503205513 84 204 3.0 9.0 0.00 0.00 0.00 32 1016.5
20260503205242 84 274 2.0 11.0 0.00 0.00 0.00 32 1016.3
20260503203112 85 272 2.0 11.0 0.00 0.00 0.00 33 1016.7